Location: Dompnac
(44.5644°N, 4.1026°E)
Time: 15:29:59
(UTC+00:00)

Cosmos 1891 Rocket - Pass Details

Date: 23 January 2021
Orbit: 934 x 1018 km, 82.9° (Epoch: 05 March)

Event Time Altitude Azimuth Distance (km) Brightness Sun altitude
Rises 05:50:09 0° 221° (SW) 3,655 7.2 -14.4°
Reaches altitude 10° 05:53:04 10° 233° (SW) 2,698 6.5 -13.9°
Maximum altitude 05:58:12 27° 290° (WNW) 1,744 5.2 -13.0°
Drops below altitude 10° 06:03:18 10° 347° (NNW) 2,672 6.5 -12.1°
Sets 06:06:12 0° 359° (N) 3,612 7.3 -11.6°
